Weather Roundup
Issued by NWS Corpus Christi, TX

Home | Current Version | Previous Version | Text Only | Print | Product List | Glossary On
Versions: 1 2 3 4 5 6 7 8 9 10 11 12 13 14 15 16 17 18 19 20 21 22 23 24 25 26 27 28 29 30 31 32 33 34 35 36 37 38 39 40 41 42 43 44 45 46 47 48 49 50
863
ASUS44 KCRP 291510
HRRCRP

SOUTH TEXAS REGIONAL WEATHER ROUNDUP
NATIONAL WEATHER SERVICE CORPUS CHRISTI TX
1000 AM CDT WED MAR 29 2017


TXZ229>244-291600-
...CORPUS CHRISTI AREA OBSERVATIONS...

CITY           SKY/WX    TMP DP  RH WIND       PRES   REMARKS
CORPUS CHRISTI CLOUDY    70  63  78 NE7       29.78R
NAS CORPUS CHR LGT RAIN  72  69  90 NE13      29.78S
ROCKPORT       LGT RAIN  65  61  87 NE9       29.78F
KINGSVILLE NAS PTSUNNY   73  66  78 N8        29.79R
ALICE          CLOUDY    73  62  68 NE5       29.78R
ORANGE GROVE   PTSUNNY   75  60  59 NE9       29.79R
FALFURRIAS     PTSUNNY   75  68  77 N8        29.78R
$$

...VICTORIA AREA OBSERVATIONS...

CITY           SKY/WX    TMP DP  RH WIND       PRES   REMARKS
VICTORIA       PTSUNNY   65  58  78 CALM      29.78R
BEEVILLE       PTSUNNY   71  64  78 CALM      29.79R
PLEASANTON     SUNNY     69  63  82 CALM      29.80R
SAN ANTONIO    CLOUDY    61  60  97 CALM      29.81R FOG
$$

...LAREDO AREA OBSERVATIONS...

CITY           SKY/WX    TMP DP  RH WIND       PRES   REMARKS
LAREDO         SUNNY     70  56  61 W6        29.83R
COTULLA        SUNNY     68  57  68 W5        29.81R
DEL RIO        SUNNY     62  55  77 CALM      29.81R
MCALLEN        PTSUNNY   81  71  71 CALM      29.76R
HEBBRONVILLE   MOSUNNY   74  53  47 NE9       29.81R
$$

...OTHER TEXAS OBSERVATIONS...

CITY           SKY/WX    TMP DP  RH WIND       PRES   REMARKS
BROWNSVILLE    CLOUDY    80  73  79 S14       29.76R
HOUSTON        TSTM      73  68  84 NE17      29.82R
COL. STATION   CLOUDY    65  63  93 SE6       29.79R
AUSTIN         CLOUDY    63  61  93 SW3       29.80R
WACO           SUNNY     65  62  90 S14       29.76S
FORT WORTH     MOSUNNY   67  60  78 S18G25    29.70R
WICHITA FALLS  MOSUNNY   60  56  86 S13       29.66S
LUBBOCK        CLOUDY    48  43  82 NW17      29.75R
EL PASO        PTSUNNY   54  32  43 NW13      29.93R
$$

...MARINE OBSERVATIONS...

STATION/POSITION TIME  SKY/WX   TEMP    WIND        PRES    VSBY  WAVE   SWELL
                                AIR SEA DIR/SP/G                  HT/PER HT/PER
                 (UTC)          (F)     (DEG/KT/KT) (MB)    (MI)  (FT/S) (FT/S)
PORT ARANSAS     1500            68 74  340/ 13/ 15 1008.9R
BUOY 90 E PORT A 1350            75 73  140/ 12/ 14 1008.4          9/ 8   8/ 8
BUOY 45 SE BAFFI 1350            73     170/  8/ 10 1006.9          9/ 8   8/ 8
BUOY 200 E PT IS 1350            78 77  150/ 21/ 27 1008.2         10/ 8
BUOY 15 E GALVES 1350            73 71  110/  8/ 12 1010.5          6/ 8   5/ 8
$$




USA.gov is the U.S. government's official web portal to all federal, state and local government web resources and services.